Retour au catalogue

SL-16 DEB

LostLEO
NORAD 39870·DEBRIS·🇷🇺 Russia

Lancé Mar 26, 1993 depuis Baikonur Cosmodrome

Loading…

Prochains Passages (prochaines 24 heures)

TLE

PériméSource: Space-Track

Époque: Nov 29, 2022, 01:41 UTC

1 39870U 93016AU  22333.07047867  .00005529  00000-0  20732-2 0  9995
2 39870  70.9830 119.9293 0121403 316.9527  42.2153 14.28069958 11780

Suivez SL-16 DEB en temps réel avec AllMySat

Download on the App Store